SCP
0 0 0 0 0 0 0 0 0 0 0 0 0 0 0 0 0 0 0 -0 -0 -0 -0 -0 -0 -0 -0 -0 -0 -0 -0 -0 -0 -0 -0 -0 -0 -0 -0 -0 -0 -0 -0 -0 -0 -0 -0 -0 -0
0 0 0 0 0 0 0 0 0 0 0 0 0 0 0 0 0 0 0 0 -0 -0 0 0 -0 -0 -0 -0 -0 -0 -0 -0 -0 -0 -0 -0 -0 -0 -0 -0 -0 -0 -0 0 -0 -0 -0 -0 -0
0 0 0 0 0 0 0 0 0 0 0 0 0 0 0 0 0 0 0 0 0 0 0 0 0 -0 -0 -0 -0 -0 -0 -0 -0 -0 -0 -0 -0 -0 -0 -0 -0 0 0 0 0 0 0 0 0
0 0 0 0 0 0 0 0 0 0 0 0 0 0 0 0 0 0 0 0 0 0 0 0 0 0 0 -0 -0 -0 -0 -0 -0 -0 -0 0 0 0 0 0 0 0 0 0 0 0 0 0 0
0 0 0 0 0 0 0 0 0 0 0 0 0 0 0 0 0 0 0 0 0 0 0 0 0 0 0 0 0 -0 -0 0 0 0 0 0 0 0 0 0 0 0 0 0 0 0 0 0 0
0 0 0 0 0 0 0 0 0 0 0 0 0 0 0 0 0 0 0 0 0 0 0 0 0 0 0 0 0 0 0 0 0 0 0 0 0 0 0 0 0 0 0 0 0 0 0 0 0
0 0 0 0 0 0 0 0 0 0 0 0 0 0 0 0 0 0 0 0 0 0 0 0 0 0 0 0 0 0 0 0 0 0 0 0 0 0 0 0 0 0 0 0 0 0 0 0 0
0 0 0 0 0 0 0 0 0 0 0 0 0 0 0 0 0 0 0 0 0 0 0 0 0 0 0 0 0 0 0 0 0 0 0 0 0 0 0 0 0 0 0 0 0 0 0 0 0
0 0 0 0 0 0 0 0 0 0 0 0 0 0 0 0 0 0 0 0 0 0 0 0 0 0 0 0 0 0 0 0 0 0 0 0 0 0 0 0 0 0 0 0 0 0 0 0 0
0 0 0 0 0 0 0 0 0 0 0 0 0 0 0 0 0 0 0 0 0 0 0 0 0 0 0 0 0 0 0 0 0 0 0 0 0 0 0 0 0 0 0 0 0 0 0 0 0
0 0 0 0 0 0 0 0 0 0 0 0 0 0 0 0 0 0 0 0 0 0 0 0 0 0 0 0 0 0 0 0 0 0 0 0 0 0 0 0 0 0 0 0 0 0 0 0 0
0 0 0 0 0 0 0 0 0 0 0 0 0 0 0 0 0 0 0 0 0 0 0 0 0 0 0 0 0 0 0 0 0 0 0 0 0 0 0 0 0 0 0 0 0 0 0 0 0
0 0 0 0 0 0 0 0 0 0 0 0 0 0 0 0 0 0 0 0 0 0 0 0 0 0 0 0 0 0 0 0 0 0 0 0 0 0 0 0 0 0 0 0 0 0 0 0 0
0 0 0 0 0 0 0 0 0 0 0 0 0 0 0 0 0 0 0 0 0 0 0 0 0 0 0 0 0 0 0 0 0 0 0 0 0 0 0 0 0 0 0 0 0 0 0 0 0
0 0 0 0 0 0 0 0 0 0 0 0 0 0 0 0 0 0 0 0 0 0 0 0 0 0 0 0 0 0 0 0 0 0 0 0 0 0 0 0 0 0 0 0 0 0 0 0 0
0 0 0 0 0 0 0 0 0 0 0 0 0 0 0 0 0 0 0 0 0 0 0 0 0 0 0 0 0 0 0 0 0 0 0 0 0 0 0 0 0 0 0 0 0 0 0 0 -0
0 0 0 0 0 0 0 0 0 0 0 0 0 0 0 0 0 0 0 0 0 0 0 0 0 0 0 0 0 0 0 0 0 0 0 0 0 0 0 0 0 0 0 0 0 0 0 0 0
0 0 0 0 0 0 0 0 0 0 0 0 0 0 0 0 0 0 0 0 0 0 0 0 0 0 0 0 0 0 0 0 0 0 0 0 0 0 0 0 0 0 0 0 0 0 0 -0 -0
0 0 0 0 0 0 0 0 0 0 0 0 0 0 0 0 0 0 0 0 0 0 0 0 0 0 0 0 0 0 0 0 0 0 0 0 0 0 0 0 0 0 0 0 0 0 0 0 0
0 0 0 0 0 0 0 0 0 0 0 0 0 0 0 0 0 0 0 0 0 0 0 0 0 0 0 0 0 0 0 0 0 0 0 0 0 0 0 0 0 0 0 0 0 0 0 0 0
0 0 0 0 0 0 0 0 0 0 0 0 0 0 0 0 0 0 0 0 0 0 0 0 0 0 0 0 0 0 0 0 0 0 0 0 0 0 0 0 0 0 0 0 0 0 0 0 0
0 0 0 0 0 0 0 -0 0 0 0 0 0 0 0 0 0 0 0 0 0 0 0 0 0 0 0 0 0 0 0 0 0 0 0 0 0 0 0 0 0 0 0 0 0 0 0 0 0
0 0 0 0 0 0 0 0 0 0 0 0 0 0 0 0 0 0 0 0 0 0 0 0 0 0 0 0 0 0 0 0 0 0 0 0 0 0 0 0 0 0 0 0 0 0 0 0 0
0 0 0 0 0 0 0 0 0 0 0 0 0 0 0 0 0 0 0 0 0 0 0 0 0 0 0 0 0 0 0 0 0 0 0 0 0 0 0 0 0 0 0 0 0 0 0 0 0
0 0 0 0 0 0 0 0 0 0 0 0 0 0 0 0 0 0 0 0 0 0 0 0 0 0 0 0 0 0 0 0 0 0 0 0 0 0 0 0 0 0 0 0 0 0 0 0 0
0 0 0 0 0 0 0 0 0 0 0 0 0 0 0 0 0 0 0 0 0 0 0 0 0 0 0 0 0 0 0 0 0 0 0 0 0 0 0 0 0 0 0 0 0 0 0 0 0
0 0 0 0 0 0 0 0 0 0 0 0 0 0 0 0 0 0 0 0 0 0 0 0 0 0 0 0 0 0 0 0 0 0 0 0 0 0 0 0 0 0 0 0 0 0 0 0 0
0 0 0 0 0 0 0 0 0 0 0 0 0 0 0 0 0 0 0 0 0 0 0 0 0 0 0 0 0 0 0 0 0 0 0 0 0 0 0 0 0 0 0 0 0 0 0 0 0
0 0 0 0 0 0 0 0 0 0 0 0 0 0 0 0 0 0 0 0 0 0 0 0 0 0 0 0 0 0 0 0 0 0 0 0 0 0 0 0 0 0 0 0 0 0 0 0 0
0 0 0 0 0 0 0 0 0 0 0 0 -0 0 0 0 0 0 0 0 0 0 0 0 0 0 0 0 0 0 0 0 0 0 0 0 0 0 0 0 0 0 0 0 0 0 0 0 0
Wind_Speed_500mb
6 8 4 4 7 9 8 9 5 6 5 6 17 9 15 8 3 7 28 34 29 30 24 21 20 19 14 16 16 15 14 10 5 4 7 8 10 13 14 13 11 12 12 12 12 13 15 15 17
6 9 5 1 7 3 9 5 9 4 10 13 13 8 11 2 3 11 33 39 35 32 26 23 19 17 15 14 13 13 11 11 11 13 14 13 14 16 17 17 18 18 18 18 20 22 21 18 19
6 4 2 6 5 7 7 9 14 12 17 10 7 3 3 10 11 11 20 34 37 30 27 24 22 19 16 14 13 12 10 11 14 14 13 14 13 13 14 14 15 16 17 19 22 22 23 23 22
5 3 2 5 14 15 8 9 17 21 9 14 11 6 8 17 8 13 22 32 38 33 29 27 24 20 19 18 16 14 14 14 10 10 9 9 10 12 13 13 13 14 15 19 20 21 22 22 21
3 2 2 5 13 10 3 34 30 11 15 17 17 8 7 23 26 17 21 35 38 37 34 31 27 24 21 20 18 15 13 11 9 9 8 7 7 7 6 6 7 8 9 12 13 15 16 17 18
4 2 4 6 9 7 7 24 24 15 14 16 13 9 8 18 29 26 28 35 39 37 36 34 31 28 24 19 15 12 11 10 10 8 7 5 2 1 2 4 6 8 11 13 14 14 14 14 14
4 6 8 9 13 9 8 20 17 21 22 25 15 11 9 29 28 29 33 37 39 40 38 37 34 29 25 23 19 15 13 12 10 9 7 5 4 4 2 1 4 7 9 11 13 15 17 18 18
4 6 8 9 7 9 14 12 8 19 20 14 29 13 12 32 33 33 39 42 42 43 43 40 36 34 31 28 23 20 18 15 13 11 9 6 6 4 2 3 9 13 18 21 24 26 26 26 25
4 4 7 10 5 5 18 9 11 11 11 17 27 20 19 18 35 39 46 48 48 49 49 47 44 40 35 33 30 26 22 20 17 15 13 12 10 6 7 11 15 18 21 24 27 28 28 25 24
7 5 13 9 7 5 8 14 17 11 16 19 28 38 39 33 38 46 52 53 53 52 54 53 52 47 42 38 34 30 26 23 20 18 17 15 12 11 11 12 14 15 17 21 23 26 28 29 29
11 12 9 9 12 10 6 8 16 18 13 34 48 58 50 49 50 53 57 57 53 51 55 56 55 52 48 44 40 37 33 30 27 24 22 19 18 17 15 15 16 18 20 22 25 26 28 29 26
10 26 38 25 22 10 7 13 13 39 48 22 32 44 58 60 60 59 62 62 61 60 58 58 58 58 55 50 46 42 38 35 32 30 29 27 25 21 19 20 19 19 20 23 25 29 30 29 28
13 13 34 35 26 31 27 37 23 43 51 52 55 46 44 63 68 66 63 60 61 66 63 64 62 64 61 57 53 49 45 42 39 38 36 33 30 27 25 23 21 22 24 25 27 30 31 30 26
8 14 28 29 43 32 19 17 16 44 51 54 63 63 68 68 70 66 70 72 70 69 68 66 66 66 65 63 58 54 50 48 47 44 41 37 34 30 26 26 24 24 25 27 29 30 32 31 29
12 14 18 28 46 15 23 20 27 77 58 45 50 63 74 74 68 75 73 77 73 73 69 69 69 65 66 64 62 59 55 54 52 47 45 43 39 34 29 28 26 26 26 27 29 32 35 36 36
5 3 9 6 13 11 25 33 26 40 45 60 66 62 60 71 80 78 75 73 75 74 76 71 72 69 66 66 67 63 60 57 56 53 50 47 43 38 34 34 31 29 27 29 32 34 36 37 38
7 12 17 21 24 13 13 23 21 30 44 60 62 65 69 68 74 80 78 75 77 76 76 79 79 74 70 66 69 67 64 62 61 59 57 53 48 42 39 37 34 30 28 30 32 32 36 39 40
17 13 14 19 6 8 14 31 34 45 26 35 52 57 60 73 90 85 79 83 79 78 77 81 81 75 72 68 71 71 70 68 68 65 62 58 53 47 45 41 38 33 31 33 34 34 34 39 47
9 13 14 31 18 14 31 36 40 52 47 53 75 84 84 92 99 91 83 81 83 83 83 88 86 81 77 78 81 82 83 77 75 69 65 61 55 50 47 44 40 34 32 36 37 36 37 36 40
22 31 27 24 25 19 24 38 36 21 38 56 59 77 91 101 97 84 74 74 89 90 90 88 86 81 81 80 81 83 81 76 71 67 67 63 59 55 53 49 42 37 37 40 40 39 38 37 38
36 25 40 35 21 11 19 25 25 23 46 57 76 91 97 96 88 76 65 72 86 97 95 90 85 80 83 81 81 83 75 71 75 79 77 72 66 62 59 53 46 41 41 41 40 40 37 35 36
45 21 22 16 6 28 11 40 18 15 29 26 59 81 92 86 79 70 65 72 86 98 94 88 80 78 82 83 83 86 88 87 90 87 81 74 71 67 62 57 50 45 44 43 42 40 37 35 36
45 12 17 5 10 11 10 15 8 18 19 22 32 71 91 88 81 62 62 68 77 95 93 85 76 79 84 84 83 86 91 89 86 81 77 74 71 68 65 60 55 51 46 43 42 40 38 40 38
5 2 1 4 4 26 18 21 9 13 22 13 30 64 81 75 73 49 55 65 77 91 88 82 81 85 86 85 83 85 88 90 85 83 81 78 75 72 68 64 60 54 48 44 42 41 41 42 42
6 9 8 8 1 25 23 22 46 14 12 22 28 61 71 71 52 36 46 71 74 86 87 85 86 90 90 89 88 85 85 88 84 82 85 84 81 79 74 67 63 56 49 45 44 45 44 45 45
20 27 12 15 16 36 9 17 12 25 31 55 70 70 66 56 34 40 54 58 65 76 83 86 90 91 93 92 93 90 87 87 83 83 88 89 85 78 68 65 63 59 53 50 49 47 48 47 45
8 13 26 5 4 5 22 28 18 9 19 19 42 48 48 52 48 49 52 51 54 67 78 83 85 88 94 96 96 95 95 93 87 83 88 87 83 75 70 69 65 61 57 53 50 49 49 47 46
11 1 4 4 7 16 32 27 35 29 36 34 17 27 55 47 48 46 47 47 52 62 68 74 80 84 90 94 100 99 96 94 92 88 87 86 83 82 78 73 68 63 57 55 53 50 49 47 47
1 9 10 4 9 31 38 35 8 21 18 17 18 44 44 41 42 43 40 43 50 59 66 68 77 82 88 94 98 103 99 100 100 94 89 86 85 86 81 75 68 63 58 56 55 52 50 48 46
11 22 28 20 25 11 18 29 56 31 15 14 11 22 35 35 30 27 31 38 46 55 64 69 76 84 83 91 99 102 106 104 101 99 93 87 84 84 80 74 69 65 60 58 56 54 48 47 47
Wind_Direction_500mb
183 162 162 68 37 67 271 261 113 85 70 69 71 79 124 76 139 195 166 193 197 190 189 194 185 185 183 180 184 192 195 213 236 280 286 302 316 318 321 321 318 306 304 303 300 298 292 303 308
166 139 88 342 96 51 269 210 130 145 133 114 93 61 66 106 167 165 165 196 200 188 187 188 187 187 185 185 193 202 208 224 248 262 282 292 288 286 289 293 290 287 289 291 294 296 304 306 302
133 122 49 108 172 196 227 194 144 128 138 136 110 115 142 178 201 195 185 194 200 189 185 186 186 189 192 195 201 212 214 228 241 259 269 279 283 284 291 293 292 296 299 294 295 297 295 291 286
154 128 270 96 248 265 208 157 146 133 126 156 153 148 190 197 209 185 198 190 195 192 194 196 198 195 187 183 188 187 191 205 209 229 244 256 271 282 286 288 294 299 299 301 302 304 301 298 292
120 194 42 253 266 260 230 156 156 141 161 194 175 210 212 205 220 221 202 200 201 196 200 202 202 198 190 182 180 180 187 199 210 228 239 250 253 273 297 327 336 342 338 332 332 332 326 319 308
340 292 37 253 251 274 204 151 154 156 184 184 191 154 225 226 221 220 212 206 206 206 206 208 207 203 199 202 200 198 203 208 215 214 213 211 179 124 34 2 2 359 355 354 351 341 333 328 326
150 97 227 253 257 283 218 163 162 180 177 188 185 166 222 213 212 216 212 212 215 211 213 211 210 210 209 210 209 210 203 201 199 198 193 176 166 162 158 34 20 6 2 353 346 338 332 327 327
263 99 282 247 243 252 160 144 189 209 227 215 195 213 224 222 210 208 210 217 221 219 218 220 216 216 218 217 215 208 203 201 202 204 206 208 191 183 170 1 353 353 347 342 337 334 332 330 329
252 52 252 260 260 213 164 160 188 224 219 200 203 232 231 218 208 205 209 215 223 222 224 221 222 220 219 218 214 212 208 204 208 217 216 216 226 253 307 326 335 335 336 332 327 324 322 320 320
169 159 235 221 294 289 217 194 193 202 222 227 225 234 241 234 221 217 219 223 227 226 227 225 224 223 222 223 220 217 215 218 221 224 229 232 243 260 278 294 305 311 314 316 321 322 321 320 317
201 214 215 290 314 316 284 250 229 200 239 226 230 234 236 238 235 232 233 238 241 234 231 230 227 227 225 225 222 219 219 220 222 227 234 234 242 247 261 276 290 300 308 314 321 327 324 316 310
226 242 255 276 280 267 262 274 246 229 240 258 253 253 244 235 238 240 239 239 237 236 236 235 229 228 226 224 224 223 223 224 226 229 233 239 244 253 261 272 281 287 292 303 317 324 324 318 313
218 253 261 272 276 258 251 257 255 263 258 255 251 257 244 243 247 244 245 243 239 237 237 236 232 230 227 227 223 224 224 227 228 229 233 235 240 246 257 268 277 285 293 304 312 317 316 315 312
253 265 272 277 269 255 209 259 241 267 269 259 246 246 251 250 252 249 244 244 240 240 238 236 234 231 228 226 224 224 224 227 228 229 232 236 241 249 257 267 274 277 285 299 310 314 319 320 316
279 310 307 258 255 224 198 286 226 266 258 254 249 244 244 249 250 252 255 252 247 243 239 236 235 232 230 227 226 225 225 227 230 229 231 235 239 244 253 260 265 273 285 295 304 315 322 323 321
245 203 282 263 170 190 152 264 247 263 248 245 243 245 242 246 250 255 255 254 249 242 238 235 236 234 232 228 226 225 226 229 232 233 235 237 240 244 249 254 259 267 279 289 299 315 324 324 320
247 239 218 296 190 150 174 247 272 265 238 243 246 244 242 250 251 252 253 256 252 245 237 233 234 233 233 229 227 226 228 231 233 234 236 235 237 240 242 247 254 261 271 282 295 310 318 321 320
214 225 250 235 205 151 195 244 261 259 259 241 244 249 246 250 258 260 259 254 246 243 240 235 234 230 231 230 227 227 228 230 232 233 234 234 236 236 239 244 249 255 265 277 289 301 312 321 323
222 258 252 266 260 188 233 241 252 256 257 249 256 259 261 263 270 268 263 256 245 236 233 232 230 227 227 226 223 224 227 227 232 234 235 236 237 237 241 243 247 254 265 275 283 293 305 316 319
245 257 262 271 260 189 249 245 257 242 248 248 246 254 259 265 267 268 261 252 235 234 231 229 231 230 229 230 229 228 232 231 237 239 238 238 237 238 239 242 246 253 263 271 280 290 300 312 322
248 252 261 262 292 248 286 271 241 242 242 250 256 260 263 262 264 262 252 245 233 226 227 229 230 231 231 230 228 228 228 232 233 234 235 236 235 237 238 241 245 253 262 270 278 285 296 307 311
258 219 248 254 255 272 144 291 220 245 242 238 247 254 260 262 261 263 249 237 230 228 226 229 231 233 230 229 227 228 229 229 234 236 238 238 237 237 239 241 245 251 260 268 275 283 291 296 300
263 224 241 211 236 318 194 277 178 197 241 244 243 248 257 267 269 258 240 237 231 224 224 228 231 230 229 229 229 230 233 235 241 240 240 237 237 236 237 241 244 249 257 266 273 280 287 291 293
167 140 184 53 81 264 180 205 189 189 215 230 242 253 263 262 264 251 242 228 224 220 223 226 228 227 227 228 230 231 233 235 236 237 236 236 235 235 237 240 242 247 254 262 270 276 281 284 289
169 88 300 310 3 256 180 218 250 287 255 212 227 243 247 244 257 237 226 214 219 221 221 225 225 225 226 228 230 231 234 237 237 240 240 237 235 234 236 238 241 245 251 258 267 272 278 283 287
200 202 182 214 254 275 133 246 252 215 237 240 242 243 237 243 231 224 228 219 222 223 224 223 223 225 228 229 231 232 234 239 239 239 241 241 240 240 239 240 239 242 247 254 261 268 273 276 281
182 171 217 325 85 356 268 271 290 283 267 259 240 238 237 236 226 221 225 227 227 224 225 225 226 229 230 231 231 234 236 239 240 241 243 242 241 239 236 237 240 242 244 251 260 265 269 276 281
184 224 104 212 204 246 268 271 274 284 271 256 274 230 244 231 215 220 226 232 233 235 231 229 232 235 236 235 235 236 237 240 241 243 244 243 240 236 235 236 237 240 246 253 258 264 269 272 279
129 259 246 295 203 250 261 271 219 254 249 253 245 245 230 220 226 233 237 243 243 240 236 233 235 238 239 238 239 239 239 239 240 242 244 243 240 237 235 235 237 240 245 254 260 263 265 271 280
258 236 232 239 255 237 271 264 262 273 280 261 333 285 260 239 224 243 263 253 254 247 242 240 241 242 245 243 241 241 241 241 241 243 243 242 239 237 236 234 236 239 244 249 256 262 267 273 280
Wind_Speed_850mb
6 8 4 4 7 9 8 9 5 6 5 6 17 9 15 8 3 7 28 34 29 30 24 21 20 19 14 16 16 15 14 10 5 4 7 8 10 13 14 13 11 12 12 12 12 13 15 15 17
6 9 5 1 7 3 9 5 9 4 10 13 13 8 11 2 3 11 33 39 35 32 26 23 19 17 15 14 13 13 11 11 11 13 14 13 14 16 17 17 18 18 18 18 20 22 21 18 19
6 4 2 6 5 7 7 9 14 12 17 10 7 3 3 10 11 11 20 34 37 30 27 24 22 19 16 14 13 12 10 11 14 14 13 14 13 13 14 14 15 16 17 19 22 22 23 23 22
5 3 2 5 14 15 8 9 17 21 9 14 11 6 8 17 8 13 22 32 38 33 29 27 24 20 19 18 16 14 14 14 10 10 9 9 10 12 13 13 13 14 15 19 20 21 22 22 21
3 2 2 5 13 10 3 34 30 11 15 17 17 8 7 23 26 17 21 35 38 37 34 31 27 24 21 20 18 15 13 11 9 9 8 7 7 7 6 6 7 8 9 12 13 15 16 17 18
4 2 4 6 9 7 7 24 24 15 14 16 13 9 8 18 29 26 28 35 39 37 36 34 31 28 24 19 15 12 11 10 10 8 7 5 2 1 2 4 6 8 11 13 14 14 14 14 14
4 6 8 9 13 9 8 20 17 21 22 25 15 11 9 29 28 29 33 37 39 40 38 37 34 29 25 23 19 15 13 12 10 9 7 5 4 4 2 1 4 7 9 11 13 15 17 18 18
4 6 8 9 7 9 14 12 8 19 20 14 29 13 12 32 33 33 39 42 42 43 43 40 36 34 31 28 23 20 18 15 13 11 9 6 6 4 2 3 9 13 18 21 24 26 26 26 25
4 4 7 10 5 5 18 9 11 11 11 17 27 20 19 18 35 39 46 48 48 49 49 47 44 40 35 33 30 26 22 20 17 15 13 12 10 6 7 11 15 18 21 24 27 28 28 25 24
7 5 13 9 7 5 8 14 17 11 16 19 28 38 39 33 38 46 52 53 53 52 54 53 52 47 42 38 34 30 26 23 20 18 17 15 12 11 11 12 14 15 17 21 23 26 28 29 29
11 12 9 9 12 10 6 8 16 18 13 34 48 58 50 49 50 53 57 57 53 51 55 56 55 52 48 44 40 37 33 30 27 24 22 19 18 17 15 15 16 18 20 22 25 26 28 29 26
10 26 38 25 22 10 7 13 13 39 48 22 32 44 58 60 60 59 62 62 61 60 58 58 58 58 55 50 46 42 38 35 32 30 29 27 25 21 19 20 19 19 20 23 25 29 30 29 28
13 13 34 35 26 31 27 37 23 43 51 52 55 46 44 63 68 66 63 60 61 66 63 64 62 64 61 57 53 49 45 42 39 38 36 33 30 27 25 23 21 22 24 25 27 30 31 30 26
8 14 28 29 43 32 19 17 16 44 51 54 63 63 68 68 70 66 70 72 70 69 68 66 66 66 65 63 58 54 50 48 47 44 41 37 34 30 26 26 24 24 25 27 29 30 32 31 29
12 14 18 28 46 15 23 20 27 77 58 45 50 63 74 74 68 75 73 77 73 73 69 69 69 65 66 64 62 59 55 54 52 47 45 43 39 34 29 28 26 26 26 27 29 32 35 36 36
5 3 9 6 13 11 25 33 26 40 45 60 66 62 60 71 80 78 75 73 75 74 76 71 72 69 66 66 67 63 60 57 56 53 50 47 43 38 34 34 31 29 27 29 32 34 36 37 38
7 12 17 21 24 13 13 23 21 30 44 60 62 65 69 68 74 80 78 75 77 76 76 79 79 74 70 66 69 67 64 62 61 59 57 53 48 42 39 37 34 30 28 30 32 32 36 39 40
17 13 14 19 6 8 14 31 34 45 26 35 52 57 60 73 90 85 79 83 79 78 77 81 81 75 72 68 71 71 70 68 68 65 62 58 53 47 45 41 38 33 31 33 34 34 34 39 47
9 13 14 31 18 14 31 36 40 52 47 53 75 84 84 92 99 91 83 81 83 83 83 88 86 81 77 78 81 82 83 77 75 69 65 61 55 50 47 44 40 34 32 36 37 36 37 36 40
22 31 27 24 25 19 24 38 36 21 38 56 59 77 91 101 97 84 74 74 89 90 90 88 86 81 81 80 81 83 81 76 71 67 67 63 59 55 53 49 42 37 37 40 40 39 38 37 38
36 25 40 35 21 11 19 25 25 23 46 57 76 91 97 96 88 76 65 72 86 97 95 90 85 80 83 81 81 83 75 71 75 79 77 72 66 62 59 53 46 41 41 41 40 40 37 35 36
45 21 22 16 6 28 11 40 18 15 29 26 59 81 92 86 79 70 65 72 86 98 94 88 80 78 82 83 83 86 88 87 90 87 81 74 71 67 62 57 50 45 44 43 42 40 37 35 36
45 12 17 5 10 11 10 15 8 18 19 22 32 71 91 88 81 62 62 68 77 95 93 85 76 79 84 84 83 86 91 89 86 81 77 74 71 68 65 60 55 51 46 43 42 40 38 40 38
5 2 1 4 4 26 18 21 9 13 22 13 30 64 81 75 73 49 55 65 77 91 88 82 81 85 86 85 83 85 88 90 85 83 81 78 75 72 68 64 60 54 48 44 42 41 41 42 42
6 9 8 8 1 25 23 22 46 14 12 22 28 61 71 71 52 36 46 71 74 86 87 85 86 90 90 89 88 85 85 88 84 82 85 84 81 79 74 67 63 56 49 45 44 45 44 45 45
20 27 12 15 16 36 9 17 12 25 31 55 70 70 66 56 34 40 54 58 65 76 83 86 90 91 93 92 93 90 87 87 83 83 88 89 85 78 68 65 63 59 53 50 49 47 48 47 45
8 13 26 5 4 5 22 28 18 9 19 19 42 48 48 52 48 49 52 51 54 67 78 83 85 88 94 96 96 95 95 93 87 83 88 87 83 75 70 69 65 61 57 53 50 49 49 47 46
11 1 4 4 7 16 32 27 35 29 36 34 17 27 55 47 48 46 47 47 52 62 68 74 80 84 90 94 100 99 96 94 92 88 87 86 83 82 78 73 68 63 57 55 53 50 49 47 47
1 9 10 4 9 31 38 35 8 21 18 17 18 44 44 41 42 43 40 43 50 59 66 68 77 82 88 94 98 103 99 100 100 94 89 86 85 86 81 75 68 63 58 56 55 52 50 48 46
11 22 28 20 25 11 18 29 56 31 15 14 11 22 35 35 30 27 31 38 46 55 64 69 76 84 83 91 99 102 106 104 101 99 93 87 84 84 80 74 69 65 60 58 56 54 48 47 47
Wind_Direction_850mb
183 162 162 68 37 67 271 261 113 85 70 69 71 79 124 76 139 195 166 193 197 190 189 194 185 185 183 180 184 192 195 213 236 280 286 302 316 318 321 321 318 306 304 303 300 298 292 303 308
166 139 88 342 96 51 269 210 130 145 133 114 93 61 66 106 167 165 165 196 200 188 187 188 187 187 185 185 193 202 208 224 248 262 282 292 288 286 289 293 290 287 289 291 294 296 304 306 302
133 122 49 108 172 196 227 194 144 128 138 136 110 115 142 178 201 195 185 194 200 189 185 186 186 189 192 195 201 212 214 228 241 259 269 279 283 284 291 293 292 296 299 294 295 297 295 291 286
154 128 270 96 248 265 208 157 146 133 126 156 153 148 190 197 209 185 198 190 195 192 194 196 198 195 187 183 188 187 191 205 209 229 244 256 271 282 286 288 294 299 299 301 302 304 301 298 292
120 194 42 253 266 260 230 156 156 141 161 194 175 210 212 205 220 221 202 200 201 196 200 202 202 198 190 182 180 180 187 199 210 228 239 250 253 273 297 327 336 342 338 332 332 332 326 319 308
340 292 37 253 251 274 204 151 154 156 184 184 191 154 225 226 221 220 212 206 206 206 206 208 207 203 199 202 200 198 203 208 215 214 213 211 179 124 34 2 2 359 355 354 351 341 333 328 326
150 97 227 253 257 283 218 163 162 180 177 188 185 166 222 213 212 216 212 212 215 211 213 211 210 210 209 210 209 210 203 201 199 198 193 176 166 162 158 34 20 6 2 353 346 338 332 327 327
263 99 282 247 243 252 160 144 189 209 227 215 195 213 224 222 210 208 210 217 221 219 218 220 216 216 218 217 215 208 203 201 202 204 206 208 191 183 170 1 353 353 347 342 337 334 332 330 329
252 52 252 260 260 213 164 160 188 224 219 200 203 232 231 218 208 205 209 215 223 222 224 221 222 220 219 218 214 212 208 204 208 217 216 216 226 253 307 326 335 335 336 332 327 324 322 320 320
169 159 235 221 294 289 217 194 193 202 222 227 225 234 241 234 221 217 219 223 227 226 227 225 224 223 222 223 220 217 215 218 221 224 229 232 243 260 278 294 305 311 314 316 321 322 321 320 317
201 214 215 290 314 316 284 250 229 200 239 226 230 234 236 238 235 232 233 238 241 234 231 230 227 227 225 225 222 219 219 220 222 227 234 234 242 247 261 276 290 300 308 314 321 327 324 316 310
226 242 255 276 280 267 262 274 246 229 240 258 253 253 244 235 238 240 239 239 237 236 236 235 229 228 226 224 224 223 223 224 226 229 233 239 244 253 261 272 281 287 292 303 317 324 324 318 313
218 253 261 272 276 258 251 257 255 263 258 255 251 257 244 243 247 244 245 243 239 237 237 236 232 230 227 227 223 224 224 227 228 229 233 235 240 246 257 268 277 285 293 304 312 317 316 315 312
253 265 272 277 269 255 209 259 241 267 269 259 246 246 251 250 252 249 244 244 240 240 238 236 234 231 228 226 224 224 224 227 228 229 232 236 241 249 257 267 274 277 285 299 310 314 319 320 316
279 310 307 258 255 224 198 286 226 266 258 254 249 244 244 249 250 252 255 252 247 243 239 236 235 232 230 227 226 225 225 227 230 229 231 235 239 244 253 260 265 273 285 295 304 315 322 323 321
245 203 282 263 170 190 152 264 247 263 248 245 243 245 242 246 250 255 255 254 249 242 238 235 236 234 232 228 226 225 226 229 232 233 235 237 240 244 249 254 259 267 279 289 299 315 324 324 320
247 239 218 296 190 150 174 247 272 265 238 243 246 244 242 250 251 252 253 256 252 245 237 233 234 233 233 229 227 226 228 231 233 234 236 235 237 240 242 247 254 261 271 282 295 310 318 321 320
214 225 250 235 205 151 195 244 261 259 259 241 244 249 246 250 258 260 259 254 246 243 240 235 234 230 231 230 227 227 228 230 232 233 234 234 236 236 239 244 249 255 265 277 289 301 312 321 323
222 258 252 266 260 188 233 241 252 256 257 249 256 259 261 263 270 268 263 256 245 236 233 232 230 227 227 226 223 224 227 227 232 234 235 236 237 237 241 243 247 254 265 275 283 293 305 316 319
245 257 262 271 260 189 249 245 257 242 248 248 246 254 259 265 267 268 261 252 235 234 231 229 231 230 229 230 229 228 232 231 237 239 238 238 237 238 239 242 246 253 263 271 280 290 300 312 322
248 252 261 262 292 248 286 271 241 242 242 250 256 260 263 262 264 262 252 245 233 226 227 229 230 231 231 230 228 228 228 232 233 234 235 236 235 237 238 241 245 253 262 270 278 285 296 307 311
258 219 248 254 255 272 144 291 220 245 242 238 247 254 260 262 261 263 249 237 230 228 226 229 231 233 230 229 227 228 229 229 234 236 238 238 237 237 239 241 245 251 260 268 275 283 291 296 300
263 224 241 211 236 318 194 277 178 197 241 244 243 248 257 267 269 258 240 237 231 224 224 228 231 230 229 229 229 230 233 235 241 240 240 237 237 236 237 241 244 249 257 266 273 280 287 291 293
167 140 184 53 81 264 180 205 189 189 215 230 242 253 263 262 264 251 242 228 224 220 223 226 228 227 227 228 230 231 233 235 236 237 236 236 235 235 237 240 242 247 254 262 270 276 281 284 289
169 88 300 310 3 256 180 218 250 287 255 212 227 243 247 244 257 237 226 214 219 221 221 225 225 225 226 228 230 231 234 237 237 240 240 237 235 234 236 238 241 245 251 258 267 272 278 283 287
200 202 182 214 254 275 133 246 252 215 237 240 242 243 237 243 231 224 228 219 222 223 224 223 223 225 228 229 231 232 234 239 239 239 241 241 240 240 239 240 239 242 247 254 261 268 273 276 281
182 171 217 325 85 356 268 271 290 283 267 259 240 238 237 236 226 221 225 227 227 224 225 225 226 229 230 231 231 234 236 239 240 241 243 242 241 239 236 237 240 242 244 251 260 265 269 276 281
184 224 104 212 204 246 268 271 274 284 271 256 274 230 244 231 215 220 226 232 233 235 231 229 232 235 236 235 235 236 237 240 241 243 244 243 240 236 235 236 237 240 246 253 258 264 269 272 279
129 259 246 295 203 250 261 271 219 254 249 253 245 245 230 220 226 233 237 243 243 240 236 233 235 238 239 238 239 239 239 239 240 242 244 243 240 237 235 235 237 240 245 254 260 263 265 271 280
258 236 232 239 255 237 271 264 262 273 280 261 333 285 260 239 224 243 263 253 254 247 242 240 241 242 245 243 241 241 241 241 241 243 243 242 239 237 236 234 236 239 244 249 256 262 267 273 280